EW7485 Weather Reports


Display with metric or nautical units.
time (UTC)temp
F
wind
direction
speed
MPH
gust
MPH
rain 1hr
in
rain 24hr
in
rain mn
in
humidity
%
barometer
mb
20190820045516 57 183 0.0 2.0 0.00 0.04 0.00 72 1026.8
20190820045016 57 231 0.0 2.0 0.00 0.04 0.00 71 1026.8
20190820044519 57 197 1.0 2.0 0.00 0.04 0.00 71 1026.8
20190820044016 57 189 1.0 2.0 0.00 0.04 0.00 72 1026.9
20190820043516 57 176 1.0 3.0 0.00 0.04 0.00 72 1026.9
20190820043022 57 204 0.0 2.0 0.00 0.03 0.00 72 1026.9
20190820042516 57 229 0.0 2.0 0.00 0.03 0.00 72 1027.0
20190820041516 57 186 0.0 2.0 0.00 0.03 0.00 72 1027.0
20190820041019 57 150 1.0 3.0 0.00 0.03 0.00 72 1027.0
20190820040516 57 194 1.0 2.0 0.00 0.03 0.00 72 1027.0
20190820040016 57 221 0.0 2.0 0.00 0.03 0.00 72 1027.0
20190820035517 57 166 0.0 2.0 0.00 0.03 0.00 73 1027.1
20190820035019 57 194 1.0 2.0 0.00 0.03 0.00 73 1027.1
20190820034519 57 195 1.0 3.0 0.00 0.03 0.00 73 1027.1
20190820034016 57 222 1.0 2.0 0.00 0.03 0.00 74 1027.3
20190820033516 57 166 0.0 3.0 0.00 0.03 0.00 74 1027.3
20190820033019 57 90 0.0 2.0 0.00 0.03 0.00 75 1027.3
20190820032516 57 185 1.0 2.0 0.00 0.03 0.00 75 1027.4
20190820032016 57 200 0.0 2.0 0.00 0.03 0.00 75 1027.4
20190820031516 57 214 1.0 2.0 0.00 0.03 0.00 76 1027.4
20190820031016 57 205 1.0 2.0 0.02 0.03 0.00 76 1027.5
20190820030516 57 228 0.0 2.0 0.02 0.03 0.00 76 1027.5
20190820030016 57 223 0.0 2.0 0.02 0.03 0.00 76 1027.5
20190820025516 57 180 1.0 2.0 0.02 0.03 0.00 77 1027.4
20190820025016 57 127 0.0 2.0 0.02 0.03 0.00 77 1027.4
20190820024519 57 204 1.0 2.0 0.02 0.03 0.00 77 1027.4
20190820024019 57 191 1.0 2.0 0.02 0.03 0.00 77 1027.4
20190820023516 57 139 0.0 2.0 0.02 0.03 0.00 78 1027.4
20190820023019 57 238 0.0 2.0 0.02 0.03 0.00 78 1027.4
20190820022516 57 186 0.0 2.0 0.02 0.03 0.00 79 1027.4
20190820022016 57 181 0.0 2.0 0.02 0.03 0.00 79 1027.4
20190820021519 57 139 0.0 2.0 0.02 0.03 0.00 79 1027.4
20190820021016 57 93 2.0 3.0 0.01 0.01 0.00 79 1027.6
20190820020516 57 138 0.0 3.0 0.01 0.01 0.00 79 1027.6
20190820020019 57 179 0.0 2.0 0.01 0.01 0.00 79 1027.6
20190820015516 57 191 0.0 2.0 0.01 0.01 0.00 79 1027.9
20190820015016 57 120 0.0 2.0 0.01 0.01 0.00 80 1027.9
20190820014516 57 127 0.0 3.0 0.01 0.01 0.00 80 1027.9
20190820014016 57 199 1.0 2.0 0.01 0.01 0.00 79 1028.0
20190820013519 57 146 0.0 2.0 0.01 0.01 0.00 79 1028.0
20190820013019 57 136 1.0 3.0 0.01 0.01 0.00 80 1028.0
20190820012516 57 96 2.0 2.0 0.01 0.01 0.00 80 1028.1
20190820012016 57 133 0.0 3.0 0.01 0.01 0.00 80 1028.1
20190820011522 57 224 0.0 3.0 0.00 0.00 0.00 80 1028.1
20190820011016 57 108 1.0 2.0 0.00 0.00 0.00 80 1028.3
20190820010519 57 212 1.0 3.0 0.00 0.00 0.00 80 1028.3
20190820010016 57 131 2.0 2.0 0.00 0.00 0.00 80 1028.3
20190820005516 57 134 0.0 1.0 0.00 0.00 0.00 80 1028.4
20190820005016 57 210 0.0 2.0 0.00 0.00 0.00 80 1028.4
20190820004516 57 127 0.0 2.0 0.00 0.00 0.00 80 1028.4
20190820004019 57 223 0.0 2.0 0.00 0.00 0.00 79 1028.4
20190820003516 57 142 0.0 1.0 0.00 0.00 0.00 79 1028.4
20190820003016 57 125 0.0 2.0 0.00 0.00 0.00 79 1028.4
20190820002519 57 113 2.0 2.0 0.00 0.00 0.00 79 1028.5
20190820002016 57 125 0.0 2.0 0.00 0.00 0.00 79 1028.5
20190820001519 57 222 0.0 3.0 0.00 0.00 0.00 79 1028.5
20190820001019 57 153 2.0 2.0 0.00 0.00 0.00 79 1028.6
20190820000519 57 216 0.0 1.0 0.00 0.00 0.00 78 1028.6
20190820000016 57 221 0.0 2.0 0.00 0.00 0.00 78 1028.6
20190819235519 57 134 0.0 2.0 0.00 0.00 0.00 78 1028.6
20190819235017 57 155 0.0 2.0 0.00 0.00 0.00 78 1028.6
20190819234516 57 186 0.0 1.0 0.00 0.00 0.00 77 1028.6
20190819234016 57 172 0.0 1.0 0.00 0.00 0.00 77 1028.5
20190819233516 57 231 1.0 1.0 0.00 0.00 0.00 77 1028.5
20190819233016 57 203 1.0 2.0 0.00 0.00 0.00 77 1028.5
20190819232516 57 210 0.0 2.0 0.00 0.00 0.00 77 1028.5
20190819232016 57 197 1.0 2.0 0.00 0.00 0.00 78 1028.5
20190819231520 58 184 0.0 2.0 0.00 0.00 0.00 78 1028.5
20190819231016 58 251 0.0 2.0 0.00 0.00 0.00 78 1028.5
20190819230516 58 155 0.0 2.0 0.00 0.00 0.00 78 1028.5
20190819230017 58 155 0.0 1.0 0.00 0.00 0.00 77 1028.5
20190819225519 58 129 1.0 2.0 0.00 0.00 0.00 76 1028.5
20190819225019 58 86 0.0 2.0 0.00 0.00 0.00 76 1028.5
20190819224519 58 191 0.0 2.0 0.00 0.00 0.00 75 1028.5
20190819224016 58 201 0.0 2.0 0.00 0.00 0.00 76 1028.7
20190819223516 58 193 0.0 1.0 0.00 0.00 0.00 76 1028.7
20190819223016 58 185 0.0 1.0 0.00 0.00 0.00 76 1028.7
20190819222516 58 167 0.0 3.0 0.00 0.00 0.00 76 1028.5
20190819222016 58 207 0.0 2.0 0.00 0.00 0.00 77 1028.5
20190819221516 58 196 0.0 2.0 0.00 0.00 0.00 77 1028.5
20190819221016 57 185 0.0 2.0 0.00 0.00 0.00 77 1028.5
20190819220516 57 213 0.0 1.0 0.00 0.00 0.00 77 1028.5
20190819220016 57 214 0.0 2.0 0.00 0.00 0.00 77 1028.5
20190819215516 57 204 0.0 1.0 0.00 0.00 0.00 77 1028.5
20190819215019 57 218 0.0 2.0 0.00 0.00 0.00 77 1028.5
20190819214522 57 200 0.0 1.0 0.00 0.00 0.00 77 1028.5
20190819214016 57 194 0.0 1.0 0.00 0.00 0.00 77 1028.7
20190819213516 57 185 0.0 1.0 0.00 0.00 0.00 77 1028.7
20190819213016 58 202 0.0 1.0 0.00 0.00 0.00 77 1028.7
20190819212516 58 207 0.0 1.0 0.00 0.00 0.00 77 1028.8
20190819212022 58 214 0.0 1.0 0.00 0.00 0.00 77 1028.8
20190819211519 58 188 0.0 2.0 0.00 0.00 0.00 77 1028.8
20190819211022 58 199 1.0 2.0 0.00 0.00 0.00 77 1028.6
20190819210516 58 214 0.0 1.0 0.00 0.00 0.00 76 1028.6
20190819210016 58 221 1.0 1.0 0.00 0.00 0.00 76 1028.6
20190819205516 58 217 0.0 1.0 0.00 0.00 0.00 76 1028.7
20190819205019 58 193 0.0 1.0 0.00 0.00 0.00 76 1028.7
20190819204516 57 191 0.0 1.0 0.00 0.00 0.00 76 1028.7
20190819204016 57 182 0.0 1.0 0.00 0.00 0.00 75 1028.8
20190819203519 57 181 0.0 1.0 0.00 0.00 0.00 75 1028.8
20190819203019 57 181 0.0 1.0 0.00 0.00 0.00 74 1028.8
20190819202516 57 193 0.0 1.0 0.00 0.00 0.00 74 1028.8
20190819202019 57 193 0.0 1.0 0.00 0.00 0.00 74 1028.8
20190819201516 57 197 0.0 1.0 0.00 0.00 0.00 73 1028.8
20190819201019 57 211 0.0 0.0 0.00 0.00 0.00 73 1028.9
20190819200516 57 211 0.0 1.0 0.00 0.00 0.00 73 1028.9
20190819200017 56 211 0.0 2.0 0.00 0.00 0.00 72 1028.9
20190819195517 56 212 0.0 1.0 0.00 0.00 0.00 72 1028.7
20190819195016 56 211 0.0 1.0 0.00 0.00 0.00 72 1028.7
20190819194519 56 203 0.0 1.0 0.00 0.00 0.00 72 1028.7
20190819194016 56 205 0.0 1.0 0.00 0.00 0.00 72 1028.9
20190819193522 56 193 0.0 1.0 0.00 0.00 0.00 72 1028.9
20190819193016 57 193 0.0 1.0 0.00 0.00 0.00 72 1028.9
20190819192519 57 194 0.0 1.0 0.00 0.00 0.00 72 1028.9
20190819192019 57 194 0.0 0.0 0.00 0.00 0.00 72 1028.9
20190819191516 57 194 0.0 0.0 0.00 0.00 0.00 72 1028.9
20190819191016 57 193 0.0 0.0 0.00 0.00 0.00 72 1028.7
20190819190519 57 193 0.0 1.0 0.00 0.00 0.00 72 1028.7
20190819190016 57 193 1.0 1.0 0.00 0.00 0.00 72 1028.7
20190819185519 57 192 0.0 1.0 0.00 0.00 0.00 72 1028.6
20190819185016 57 188 0.0 1.0 0.00 0.00 0.00 72 1028.6
20190819184516 57 203 0.0 0.0 0.00 0.00 0.00 72 1028.6
20190819184016 57 203 0.0 1.0 0.00 0.00 0.00 72 1028.6
20190819183516 58 194 0.0 1.0 0.00 0.00 0.00 72 1028.6
20190819183016 58 194 0.0 1.0 0.00 0.00 0.00 72 1028.6
20190819182519 58 194 0.0 1.0 0.00 0.00 0.00 71 1028.7
20190819182017 58 194 0.0 1.0 0.00 0.00 0.00 71 1028.7
20190819181516 58 175 0.0 1.0 0.00 0.00 0.00 71 1028.7
20190819181016 58 176 0.0 1.0 0.00 0.00 0.00 71 1028.5
20190819180516 58 172 0.0 1.0 0.00 0.00 0.00 71 1028.5
20190819180016 58 158 0.0 0.0 0.00 0.00 0.00 71 1028.5
20190819175516 58 158 0.0 0.0 0.00 0.00 0.00 71 1028.5
20190819175016 58 158 0.0 0.0 0.00 0.00 0.00 70 1028.5
20190819174519 58 158 0.0 1.0 0.00 0.00 0.00 70 1028.5
20190819174016 58 158 0.0 0.0 0.00 0.00 0.00 70 1028.5
20190819173516 57 157 0.0 0.0 0.00 0.00 0.00 69 1028.5
20190819173016 57 156 0.0 0.0 0.00 0.00 0.00 68 1028.5
20190819172516 57 156 0.0 2.0 0.00 0.00 0.00 68 1028.5
20190819172019 57 203 0.0 1.0 0.00 0.00 0.00 67 1028.5
20190819171516 57 203 0.0 1.0 0.00 0.00 0.00 67 1028.5
20190819171019 57 191 0.0 1.0 0.00 0.00 0.00 66 1028.4
20190819170516 57 191 0.0 0.0 0.00 0.00 0.00 66 1028.4
20190819170015 57 192 0.0 1.0 0.00 0.00 0.00 65 1028.4
20190819165520 58 191 0.0 0.0 0.00 0.00 0.00 65 1028.4
20190819165019 58 191 0.0 1.0 0.00 0.00 0.00 64 1028.4
20190819164516 58 186 0.0 1.0 0.00 0.00 0.00 65 1028.4
20190819164016 58 185 0.0 1.0 0.00 0.00 0.00 65 1028.4
20190819163516 58 184 0.0 1.0 0.00 0.00 0.00 65 1028.4
20190819163016 58 184 0.0 1.0 0.00 0.00 0.00 65 1028.4
20190819162519 58 186 1.0 1.0 0.00 0.00 0.00 66 1028.2
20190819162016 58 165 0.0 1.0 0.00 0.00 0.00 65 1028.2
20190819161516 58 165 0.0 2.0 0.00 0.00 0.00 65 1028.2
20190819161019 59 162 0.0 0.0 0.00 0.00 0.00 66 1028.1
20190819160516 59 162 0.0 1.0 0.00 0.00 0.00 65 1028.1
20190819160016 59 162 0.0 1.0 0.00 0.00 0.00 65 1028.1
20190819155522 60 162 0.0 1.0 0.00 0.02 0.00 64 1028.0
20190819155017 60 162 0.0 1.0 0.00 0.02 0.00 64 1028.0
20190819154516 60 162 0.0 1.0 0.00 0.02 0.00 63 1028.0
20190819154019 61 162 0.0 3.0 0.00 0.02 0.00 62 1027.9
20190819153516 61 169 0.0 1.0 0.00 0.02 0.00 61 1027.9
20190819153019 61 169 0.0 1.0 0.00 0.02 0.00 62 1027.9
20190819152519 61 169 0.0 2.0 0.00 0.02 0.00 62 1027.9
20190819152019 61 168 0.0 2.0 0.00 0.02 0.00 62 1027.9
20190819151516 61 173 1.0 2.0 0.00 0.02 0.00 62 1027.9
20190819151019 61 173 0.0 1.0 0.00 0.02 0.00 63 1027.9
20190819150516 61 173 0.0 2.0 0.00 0.02 0.00 63 1027.9
20190819150016 61 205 0.0 1.0 0.00 0.02 0.00 64 1027.9
20190819145516 61 167 0.0 1.0 0.00 0.02 0.00 64 1027.8
20190819145022 60 167 0.0 2.0 0.00 0.02 0.00 63 1027.8
20190819144516 61 166 2.0 4.0 0.00 0.02 0.00 63 1027.8
20190819144016 61 188 0.0 3.0 0.00 0.02 0.00 62 1027.8
20190819143516 61 201 1.0 3.0 0.00 0.02 0.00 60 1027.8
20190819143015 62 201 0.0 3.0 0.00 0.02 0.00 59 1027.8
20190819142516 62 206 2.0 2.0 0.00 0.02 0.00 57 1027.9
20190819142016 63 207 0.0 2.0 0.00 0.02 0.00 57 1027.9
20190819141516 63 210 0.0 1.0 0.00 0.02 0.00 55 1027.9
20190819141016 63 207 0.0 2.0 0.00 0.02 0.00 56 1027.8
20190819140517 64 138 2.0 4.0 0.00 0.02 0.00 55 1027.8
20190819140018 64 153 3.0 3.0 0.00 0.02 0.00 54 1027.8
20190819135516 64 149 2.0 3.0 0.00 0.02 0.00 54 1027.6
20190819135019 64 120 1.0 4.0 0.00 0.02 0.00 54 1027.6
20190819134519 64 118 2.0 3.0 0.00 0.02 0.00 56 1027.6
20190819134016 63 148 0.0 2.0 0.00 0.02 0.00 56 1027.7
20190819133516 63 136 1.0 7.0 0.00 0.02 0.00 59 1027.7
20190819133017 63 113 2.0 7.0 0.00 0.02 0.00 56 1027.7
20190819132516 63 118 6.0 6.0 0.00 0.02 0.00 55 1027.6
20190819132016 64 115 2.0 5.0 0.00 0.02 0.00 54 1027.6
20190819131519 64 131 2.0 4.0 0.00 0.02 0.00 54 1027.6
20190819131016 65 112 3.0 5.0 0.00 0.02 0.00 51 1027.5
20190819130519 66 118 2.0 5.0 0.00 0.02 0.00 49 1027.5
20190819130016 66 122 5.0 5.0 0.00 0.02 0.00 52 1027.5
20190819125516 66 111 1.0 6.0 0.00 0.02 0.00 52 1027.4
20190819125019 66 127 3.0 9.0 0.00 0.02 0.00 49 1027.4
20190819124516 66 124 2.0 3.0 0.00 0.03 0.00 49 1027.4
20190819124016 65 123 1.0 2.0 0.00 0.03 0.00 53 1027.4
20190819123516 64 126 2.0 3.0 0.00 0.03 0.00 53 1027.4
20190819123016 64 124 1.0 4.0 0.00 0.03 0.00 51 1027.4
20190819122516 65 122 4.0 4.0 0.00 0.03 0.00 52 1027.3
20190819122016 65 121 0.0 2.0 0.00 0.03 0.00 51 1027.3
20190819121516 64 118 0.0 3.0 0.00 0.03 0.00 52 1027.3
20190819121016 64 116 1.0 6.0 0.00 0.03 0.00 53 1027.2
20190819120519 64 116 3.0 4.0 0.00 0.03 0.00 54 1027.2
20190819120016 64 124 3.0 4.0 0.00 0.03 0.00 53 1027.2
20190819115516 64 111 3.0 5.0 0.00 0.03 0.00 54 1027.1
20190819115017 65 122 3.0 5.0 0.00 0.03 0.00 50 1027.1
20190819114516 66 120 0.0 6.0 0.00 0.03 0.00 52 1027.1
20190819114016 67 121 3.0 3.0 0.00 0.03 0.00 51 1027.1
20190819113516 67 120 1.0 4.0 0.00 0.03 0.00 48 1027.1
20190819113016 68 122 0.0 3.0 0.00 0.03 0.00 47 1027.1
20190819112517 68 136 0.0 7.0 0.00 0.03 0.00 50 1027.3
20190819112016 68 112 1.0 6.0 0.00 0.03 0.00 49 1027.3
20190819111516 67 136 1.0 3.0 0.00 0.03 0.00 49 1027.3
20190819111019 67 150 1.0 5.0 0.00 0.03 0.00 48 1027.4
20190819110516 67 124 2.0 5.0 0.00 0.03 0.00 49 1027.4
20190819110017 67 117 4.0 7.0 0.00 0.03 0.00 48 1027.4
20190819105516 67 217 0.0 7.0 0.00 0.03 0.00 52 1027.4
20190819105019 66 120 4.0 6.0 0.00 0.03 0.00 51 1027.4
20190819104519 65 123 1.0 6.0 0.00 0.03 0.00 51 1027.4
20190819104019 65 117 2.0 6.0 0.00 0.03 0.00 49 1027.5
20190819103516 65 136 2.0 4.0 0.00 0.03 0.00 50 1027.5
20190819103016 65 181 1.0 7.0 0.00 0.03 0.00 47 1027.5
20190819102519 65 113 0.0 5.0 0.00 0.03 0.00 49 1027.5
20190819102016 66 122 2.0 6.0 0.00 0.03 0.00 48 1027.5
20190819101517 67 165 1.0 3.0 0.00 0.03 0.00 47 1027.5
20190819101016 67 155 1.0 3.0 0.00 0.03 0.00 49 1027.6
20190819100519 66 120 1.0 3.0 0.00 0.03 0.00 51 1027.6
20190819100017 66 131 1.0 3.0 0.00 0.03 0.00 51 1027.6
20190819095516 65 113 0.0 2.0 0.00 0.03 0.00 51 1027.9
20190819095019 64 202 0.0 3.0 0.00 0.03 0.00 55 1027.9
20190819094516 63 117 0.0 2.0 0.00 0.03 0.00 52 1027.9
20190819094016 63 148 0.0 1.0 0.00 0.03 0.00 53 1027.9
20190819093516 63 148 0.0 2.0 0.00 0.03 0.00 52 1027.9
20190819093016 63 358 0.0 2.0 0.00 0.03 0.00 52 1027.9
20190819092516 63 64 1.0 2.0 0.00 0.03 0.00 52 1027.8
20190819092016 63 122 1.0 1.0 0.00 0.03 0.00 52 1027.8
20190819091517 62 128 0.0 3.0 0.00 0.03 0.00 52 1027.8
20190819091016 62 118 1.0 3.0 0.00 0.03 0.00 54 1027.9
20190819090518 62 161 0.0 6.0 0.00 0.03 0.00 55 1027.9
20190819090018 63 205 1.0 7.0 0.00 0.03 0.00 52 1027.9
20190819085516 64 117 2.0 6.0 0.00 0.03 0.00 54 1027.5
20190819085016 65 117 2.0 6.0 0.00 0.03 0.00 52 1027.5
20190819084516 65 116 0.0 5.0 0.00 0.03 0.00 51 1027.5
20190819084016 65 154 1.0 6.0 0.00 0.03 0.00 53 1027.4
20190819083522 63 118 4.0 7.0 0.00 0.03 0.00 56 1027.4
20190819083016 63 124 2.0 5.0 0.00 0.03 0.00 56 1027.4
20190819082516 64 210 0.0 4.0 0.00 0.03 0.00 51 1027.1
20190819082016 65 154 1.0 5.0 0.00 0.03 0.00 51 1027.1
20190819081517 65 190 1.0 6.0 0.00 0.03 0.00 53 1027.1
20190819081016 65 146 2.0 4.0 0.00 0.03 0.00 51 1026.9
20190819080516 65 153 1.0 5.0 0.00 0.03 0.00 53 1026.9
20190819080019 65 120 3.0 3.0 0.00 0.03 0.00 52 1026.9
20190819075521 64 115 0.0 2.0 0.00 0.03 0.00 53 1026.8
20190819075016 64 115 1.0 2.0 0.00 0.03 0.00 51 1026.8
20190819074519 64 174 1.0 2.0 0.00 0.03 0.00 52 1026.8
20190819074016 63 88 1.0 3.0 0.00 0.03 0.00 52 1026.7
20190819073519 64 143 0.0 4.0 0.00 0.03 0.00 51 1026.7
20190819073016 64 89 0.0 2.0 0.00 0.03 0.00 54 1026.7
20190819072522 63 84 1.0 1.0 0.00 0.03 0.00 51 1026.4
20190819072015 63 85 0.0 2.0 0.00 0.03 0.00 53 1026.4
20190819071516 63 85 0.0 2.0 0.00 0.03 0.00 54 1026.4
20190819071016 63 82 0.0 0.0 0.00 0.03 0.00 56 1026.3
20190819070520 62 82 0.0 1.0 0.00 0.03 0.00 59 1026.3
20190819070022 61 82 0.0 2.0 0.00 0.03 0.00 59 1026.3
20190819065516 61 85 0.0 0.0 0.00 0.03 0.00 61 1026.0
20190819065016 60 85 0.0 2.0 0.00 0.03 0.00 64 1026.0
20190819064516 59 87 1.0 2.0 0.00 0.03 0.00 66 1026.0
20190819064016 58 101 0.0 1.0 0.00 0.03 0.00 70 1025.8
20190819063516 57 101 0.0 1.0 0.00 0.04 0.00 72 1025.8
20190819063016 56 101 0.0 0.0 0.00 0.04 0.00 72 1025.8
20190819062516 55 101 0.0 0.0 0.00 0.04 0.00 72 1025.3
20190819062018 55 101 0.0 1.0 0.00 0.04 0.00 72 1025.3
20190819061516 55 101 0.0 1.0 0.00 0.04 0.00 73 1025.3
20190819061022 54 101 0.0 1.0 0.00 0.04 0.00 73 1025.2
20190819060516 54 103 0.0 0.0 0.00 0.04 0.00 73 1025.2
20190819060016 54 103 0.0 0.0 0.00 0.04 0.00 72 1025.2
20190819055517 54 103 0.0 0.0 0.00 0.04 0.00 73 1025.2
20190819055016 53 103 0.0 0.0 0.00 0.04 0.00 72 1025.2
20190819054516 53 103 0.0 0.0 0.00 0.04 0.00 72 1025.2
20190819054016 53 103 0.0 0.0 0.00 0.04 0.00 72 1025.2
20190819053516 52 103 0.0 0.0 0.00 0.04 0.00 72 1025.2
20190819053016 52 103 0.0 0.0 0.00 0.04 0.00 71 1025.2
20190819052516 53 103 0.0 0.0 0.00 0.04 0.00 70 1024.8
20190819052015 53 103 0.0 0.0 0.00 0.04 0.00 70 1024.8
20190819051516 53 103 0.0 0.0 0.00 0.04 0.00 69 1024.8
20190819051016 53 103 0.0 0.0 0.00 0.04 0.00 68 1024.8
20190819050516 54 104 0.0 0.0 0.00 0.04 0.00 68 1024.8
20190819050020 54 104 0.0 0.0 0.00 0.04 0.00 67 1024.8